AirNav   Air Wisconsin pilot careers
 
 1552 users online  

MO69 Baptist Medical Center Heliport
Kansas City, Missouri, USA

GOING TO KANSAS CITY?


FAA INFORMATION EFFECTIVE 04 JANUARY 2018

Location

FAA Identifier: MO69
Lat/Long: 39-00-26.9400N / 094-34-41.5500W
39-00.449000N / 094-34.692500W
39.0074833 / -94.5782083
(estimated)
Elevation: 170 ft. / 52 m (estimated)
Variation: 05E (1985)
Time zone: UTC -6 (UTC -5 during Daylight Saving Time)
Zip code: 64131

Heliport Operations

Heliport use: Private use, MEDICAL USE.
Activation date: 08/1989
Control tower: no
ARTCC: KANSAS CITY CENTER
FSS: COLUMBIA FLIGHT SERVICE STATION
Attendance: CONTINUOUS
Wind indicator: lighted
Segmented circle: no
Lights: SS-SR

Heliport Communications

WX ASOS at MKC (7 nm N): PHONE 816-329-2843
WX ASOS at LXT (10 nm E): 124.175 (816-347-9807)
WX ASOS at OJC (12 nm SW): PHONE 913-780-6969
WX ASOS at IXD (18 nm SW): 135.325 (913-780-6987)
WX ASOS at MCI (19 nm N): PHONE 816-329-2808

Nearby radio navigation aids

VOR radial/distance  VOR name  Freq  Var
MCIr151/18.2KANSAS CITY VORTAC113.2505E
ANXr249/21.6NAPOLEON VORTAC114.0007E

Heliport Services

Runway Information

Helipad H1

Dimensions: 60 x 60 ft. / 18 x 18 m
Surface: concrete
Runway edge lights: PERIMETER LGTS.
Latitude: 39-00.449000N
Longitude: 094-34.692500W
Elevation: 170.0 ft.
Traffic pattern: leftleft

Heliport Ownership and Management from official FAA records

Ownership: Privately-owned
Owner: BAPTIST MEDICAL CENTER
6601 ROCKHILL ROAD
KANSAS CITY, MO 64131
Phone 816-276-7000
Manager: ED STANTON
6601 ROCKHILL ROAD
KANSAS CITY, MO 64131
Phone 816-276-7071

Additional Remarks

A52-H1 70' BLDG 155' SE; 200' TREES 50' SW; 50' PLINES 20' N.

Instrument Procedures

There are no published instrument procedures at MO69.

Some nearby airports with instrument procedures:

KMKC - Charles B Wheeler Downtown Airport (7 nm N)
KLXT - Lee's Summit Municipal Airport (10 nm E)
KOJC - Johnson County Executive Airport (12 nm SW)
3GV - East Kansas City Airport (17 nm E)
KIXD - New Century AirCenter Airport (18 nm SW)
KMCI - Kansas City International Airport (19 nm N)
 
Loc | Ops | Rwys | IFR | FBO | Links
Com | Nav | Svcs | Stats | Notes

Kansas City Aviation Department
 
Area around MO69 (Baptist Medical Center Heliport)
 
Road maps at: MapQuest Bing Google
 
Aerial photo
No photo
 
Sectional chart

 
Airport distance calculator
Flying to Baptist Medical Center Heliport? Find the distance to fly.

From to MO69

Sunrise and sunset
Times for 22-Jan-2018
 Local
(UTC-6)
 Zulu
(UTC)
Morning civil twilight07:0513:05
Sunrise07:3313:33
Sunset17:2723:27
Evening civil twilight17:5523:55

Current date and time
Zulu (UTC)  22-Jan-2018 19:04:59
Local (UTC-6)  22-Jan-2018 13:04:59
 
METAR
KMKC 
7nm N 
221854Z 22012KT 9SM -RA OVC012 04/01 A2943 RMK AO2 RAB27 SLP965 P0000 T00390011
KLXT 
10nm E 
221853Z AUTO 20016KT 10SM OVC012 02/02 A2943 RMK AO2 SLP969 T00220017
KOJC 
12nm SW 
221853Z 24013KT 8SM UP OVC008 02/02 A2944 RMK AO2 UPB29 SLP970 P0001 T00220017
KIXD 
18nm SW 
221853Z 25012KT 8SM -RA OVC008 02/02 A2945 RMK AO2 UPB11E25RAB25 SLP976 P0002 T00220017
KMCI 
19nm N 
221853Z 23012KT 3SM -SN BR OVC008 02/01 A2941 RMK AO2 SFC VIS 3 UPB16E18RAB18E47PLB35E47SNB47 SLP961 P0002 T00220011
TAF
KMKC 
7nm N 
221737Z 2218/2318 22013KT 6SM -RASN OVC010 FM222200 27013G23KT 6SM -RASN OVC010 FM230300 30014G25KT P6SM VCSH OVC015 FM230900 31011KT P6SM BKN025
KIXD 
18nm SW 
221741Z 2218/2318 23013KT 6SM -RASN OVC010 TEMPO 2218/2222 5SM BR OVC008 FM222200 28018G28KT 5SM -RASN OVC010 FM230300 31018G30KT P6SM VCSH OVC015 FM230400 31018G30KT P6SM BKN025
KMCI 
19nm N 
221737Z 2218/2318 22012KT P6SM -RASN OVC010 TEMPO 2218/2222 4SM BR OVC008 FM222200 28016G27KT 5SM -RASN OVC010 FM230300 31016G29KT P6SM VCSH OVC015 FM230900 31012KT P6SM BKN020
NOTAMs
Click for the latest NOTAMs
NOTAMs are issued by the DoD/FAA and will open in a separate window not controlled by AirNav.

 

 
 

Would you like to see your business listed on this page?

 If your business provides an interesting product or service to pilots, flight crews, aircraft, or users of the Baptist Medical Center Heliport, you should consider listing it here.  To start the listing process, click on the button below
 
Add a business
 

Other Pages about Baptist Medical Center Heliport

Update a link
 
Copyright © AirNav, LLC. All rights reserved. Privacy Policy  Contact